Regional Weather Roundup
Issued by NWS Upton, NY

Current Version | Previous Version | Text Only | Print | Product List | Glossary On
Versions: 1 2 3 4 5 6 7 8 9 10 11 12 13 14 15 16 17 18 19 20 21 22 23 24 25 26 27 28 29 30 31 32 33 34 35 36 37 38 39 40 41 42 43 44 45 46 47 48 49 50
000 ASUS41 KOKX 240904 RWROKX REGIONAL WEATHER ROUNDUP NATIONAL WEATHER SERVICE NEW YORK NY 500 AM EDT TUE MAY 24 2016 NOTE: "FAIR" INDICATES FEW OR NO CLOUDS BELOW 12,000 FEET WITH NO SIGNIFICANT WEATHER AND/OR OBSTRUCTIONS TO VISIBILITY. NYZ071-072-176-178-NJZ106-104-241000- NEW YORK CITY METRO AREA CITY SKY/WX TMP DP RH WIND PRES REMARKS CENTRAL PARK LGT RAIN 58 56 93 W5 29.89F FOG LAGUARDIA APRT LGT RAIN 60 60 100 NW7 29.86S KENNEDY INTL RAIN 60 57 89 W10 29.87S NEWARK/LIBERTY LGT RAIN 58 56 93 VRB6 29.87F BRNX BOT. GARD N/A 57 54 88 W3 29.89R TETERBORO DRIZZLE 59 54 83 CALM 29.86F $$ NYZ177-179-078>081-241000- LONG ISLAND NEW YORK CITY SKY/WX TMP DP RH WIND PRES REMARKS FARMINGDALE CLOUDY 58 55 90 NW5 29.85R ISLIP CLOUDY 57 54 89 NW10 29.84S SHIRLEY CLOUDY 57 53 86 N14 29.83F RIVERHEAD N/A 55 54 94 NE5 29.82F WESTHAMPTON LGT RAIN 52 N/A N/A NW9 29.84R EAST HAMPTON RAIN 56 54 95 NE3 29.83S MONTAUK POINT N/A 55 54 96 NE6 29.86R $$ NYZ052-065-067-241000- HUDSON VALLEY CITY SKY/WX TMP DP RH WIND PRES REMARKS WHITE PLAINS LGT RAIN 57 54 89 NW9 29.85S NEWBURGH LGT RAIN 57 57 100 NW14 29.89F MONTGOMERY LGT RAIN 57 54 89 S5 29.88F POUGHKEEPSIE CLOUDY 58 54 86 NE3 29.88R ALBANY CLOUDY 60 53 77 SW3 29.88F $$ NJZ001-105-106-008-010-013-015-019>022-104-241000- NEW JERSEY CITY SKY/WX TMP DP RH WIND PRES REMARKS NEWARK/LIBERTY LGT RAIN 58 56 93 VRB6 29.87F TETERBORO DRIZZLE 59 54 83 CALM 29.86F CALDWELL CLOUDY 57 55 93 CALM 29.88F MORRISTOWN LGT RAIN 55 54 94 CALM 29.89R SOMERVILLE MOCLDY 56 55 97 CALM 29.88R FOG SUSSEX CLOUDY 58 54 86 CALM 29.90S ANDOVER N/A 58 55 90 CALM 29.90R TRENTON CLOUDY 57 54 89 W5 29.88F MILLVILLE PTCLDY 57 56 96 CALM 29.89R ATLANTIC CITY LGT RAIN 57 55 93 W3 29.90R WRIGHTSTOWN LGT RAIN 55 54 94 W5 29.86F TOMS RIVER CLOUDY 55 52 88 W3 29.88F BELMAR NOT AVBL $$ PAZ047>061-062-071-241000- EASTERN PENNSYLVANIA CITY SKY/WX TMP DP RH WIND PRES REMARKS PHILADELPHIA CLOUDY 58 54 86 E5 29.90R ALLENTOWN CLOUDY 56 53 90 E3 29.89R SCRANTON PTCLDY 55 47 74 CALM 29.91S $$ CTZ002-004>006-009-010-012-RIZ004-006-007-MAZ004-011-015-241000- SOUTHERN NEW ENGLAND IN CT CITY SKY/WX TMP DP RH WIND PRES REMARKS BRADLEY INTL MOCLDY 57 54 89 N6 29.85F HARTFORD CLOUDY 61 55 81 NW5 29.85F DANBURY RAIN 56 54 93 SE3 29.88R WTRBRY/OXFORD N/A 55 50 82 N6 29.87F BRIDGEPORT LGT RAIN 59 54 83 S3 29.85R MERIDEN RAIN 58 54 86 N6 29.85F NEW HAVEN LGT RAIN 56 55 97 S6 29.85R CHESTER CLOUDY 55 55 100 CALM 29.85S GROTON CLOUDY 57 57 100 NE7 29.83S WILLIMANTIC CLOUDY 58 54 86 CALM 29.86R IN RI CITY SKY/WX TMP DP RH WIND PRES REMARKS PROVIDENCE LGT RAIN 56 53 90 NE10G17 29.88R BLOCK ISLAND LGT RAIN 55 54 96 NE9 29.84S WESTERLY CLOUDY 58 54 86 VRB7 29.84S IN MA CITY SKY/WX TMP DP RH WIND PRES REMARKS BOSTON HVY RAIN 53 51 93 NE18 29.91S FOG WORCESTER NOT AVBL WESTFIELD CLOUDY 58 53 84 N6 29.86F PROVINCETOWN CLOUDY 50 49 96 NE12 29.89F NANTUCKET CLOUDY 53 51 93 NE15 29.83S FOG $$ ANZ330-335-338-340-345-350-353-355-241000- COASTAL MARINE OBSERVATIONS STATION/POSITION TIME SKY/WX TEMP WIND PRES VSBY WAVE AIR SEA DIR/SP/G HT/PER (UTC) (F) (DEG/KT/KT) (MB) (MI) (FT/S) NY HARB ENTRANCE 0750 58 56 300/ 12/ 14 1011.0 3/ 9 20S FIRE ISLAND 0750 55 54 330/ 14/ 17 1010.7 4/ 9 GREAT SOUTH BAY 0800 58 63 280/ 8/ 10 N/A 23 SSW MONTAUK P 0850 55 54 10/ 19/ 23 1008.6 4/ 9 15 E BARNEGAT LI 0822 54 N/A 3/ 7 HUDSON CANYON 0750 53 52 1011.2 4/ 8 KINGS POINT 0800 59 56 1010.8 EXECUTION ROCKS NOT AVBL CENTRAL LI SOUND 0800 57 300/ 2/ 4 N/A 1/ 2 EASTERN LI SOUND 0800 55 52 330/ 8/ 12 N/A ROBBINS REEF 0800 59 280/ 10/ 11 1010.7 $$ >>>>>>>>>>>>>>>>>>>>>>>>>>>> KEY <<<<<<<<<<<<<<<<<<<<<<<<<<< > < > SKY/WX - SKY CONDITION/PRESENT WEATHER < > TMP - TEMPERATURE IN FAHRENHEIT < > DP - DEWPOINT IN FAHRENHEIT < > RH - RELATIVE HUMIDITY IN PERCENT < > WIND - DIRECTION AND SPEED IN MPH < > PRES - MEAN SEA LEVEL PRESSURE IN INCHES OF HG < > WCI - WIND CHILL INDEX < > VSB - VISIBILITY IN MILES < > HX - HEAT INDEX < > TC - TEMPERATURE IN CELSIUS < > VRB - VARIABLE WIND DIRECTION < > < >>>>>>>>>>>>>>>>>>>>>>>>>>>> KEY <<<<<<<<<<<<<<<<<<<<<<<<<<<

USA.gov is the U.S. government's official web portal to all federal, state and local government web resources and services.